Location: ?
(35.3436°N, 139.3168°E)
Time: 08:07:44
(UTC+00:00)

Cosmos 1300 - Pass Details

Date: 29 October 2020
Orbit: 511 x 514 km, 82.5° (Epoch: 02 December)

Event Time Altitude Azimuth Distance (km) Brightness Sun altitude
Exits shadow 19:06:33 - 4° (N) 1,894 5.6 -24.1°
Reaches altitude 10° 19:06:56 10° 5° (N) 1,742 5.4 -24.0°
Maximum altitude 19:10:38 48° 81° (E) 676 3.6 -23.3°
Drops below altitude 10° 19:14:18 10° 157° (SSE) 1,727 5.6 -22.5°
Sets 19:16:28 0° 163° (SSE) 2,607 6.5 -22.1°
